User: anonymous   Login
Location: Deuil
(48.9767°N, 2.3272°E)
Time: 10:19:51
(UTC+00:00)
Language:

Cosmos 1328 - Orbit

View from above orbital plane
View from above orbital plane
View from above satellite
View from above satellite

Ground track
Ground track

The orbit data is extracted from the following two-line orbital elements,

1 12987U 81117A   22019.78789850  .00001151  00000-0  71250-4 0  9998
2 12987  82.5071  46.9841 0019701  25.1418 335.0765 15.08695936185312
Epoch (UTC): 19 January 2022 18:54:34
Eccentricity: 0.0019701
inclination: 82.5071°
perigee height: 526 km
apogee height: 554 km
right ascension of ascending node: 46.9841°
argument of perigee: 25.1418°
revolutions per day: 15.08695936
mean anomaly at epoch: 335.0765°
orbit number at epoch: 18531

The dashed part of the orbit path shows where the satellite is in the earth's shadow,  

DLR